Regional Weather Roundup
Issued by NWS Sioux Falls, SD

Home | Current Version | Previous Version | Text Only | Print | Product List | Glossary Off
Versions: 1 2 3 4 5 6 7 8 9 10 11 12 13 14 15 16 17 18 19 20 21 22 23 24 25 26 27 28 29 30 31 32 33 34 35 36 37 38 39 40 41 42 43 44 45 46 47 48 49 50

469
ASUS43 KFSD 242310
RWRFSD

WEATHER ROUNDUP FOR SE SOUTH DAKOTA/SW MINNESOTA/NW IOWA
NATIONAL WEATHER SERVICE SIOUX FALLS SD
500 PM CST FRI FEB 24 2017

NOTE: "FAIR" INDICATES FEW OR NO CLOUDS BELOW 12,000 FEET WITH NO
SIGNIFICANT WEATHER AND OR OBSTRUCTIONS TO VISIBILITY.


SDZ038>040-050-052>070-250000-
SOUTHEAST SOUTH DAKOTA

CITY           SKY/WX    TMP DP  RH WIND       PRES   REMARKS
BROOKINGS      CLOUDY    26  16  65 N23       29.94R WCI  11
CHAMBERLAIN    CLOUDY    33  16  49 NW18G29   30.06R WCI  22
HURON          SUNNY     30  16  56 N20       30.03R WCI  17
MADISON        FAIR      27  18  69 N25G31    29.95S WCI  11
MITCHELL       CLOUDY    32  17  54 N22G28    30.02S WCI  19
SIOUX FALLS    CLOUDY    27  16  63 N17       29.95R WCI  14
WINNER         CLOUDY    28  16  60 NW17      30.08R WCI  16
YANKTON        CLOUDY    28  16  59 NW20G28   30.00R WCI  15
$$

MNZ071-072-080-081-089-090-097-098-250000-
SOUTHWEST MINNESOTA

CITY           SKY/WX    TMP DP  RH WIND       PRES   REMARKS
FAIRMONT       CLOUDY    24  16  71 N15       29.83R WCI  11
JACKSON        CLOUDY    23  18  80 N18G32    29.83S HAZE    WCI   9
LUVERNE        MOSUNNY   27  14  59 N22G32    29.92R WCI  12
MARSHALL       CLOUDY    26  15  63 N26G38    29.92S WCI  10
MONTEVIDEO     CLOUDY    27  16  63 N23G35    29.96R WCI  12
PIPESTONE      CLOUDY    25  12  58 N18G29    29.91R WCI  11
REDWOOD FALLS  PTCLDY    28  11  48 N17G29    29.89R WCI  16
TRACY          CLOUDY    27  17  65 N28G35    29.90R WCI  12
WINDOM         CLOUDY    25  16  68 N31G37    29.85R WCI   8
WORTHINGTON    MOSUNNY   23  17  78 N25G31    29.87R HAZE    WCI   7
$$

IAZ001>003-012>014-020>022-031-032-NEZ013-014-SDZ071-250000-
NORTHWEST IOWA

CITY           SKY/WX    TMP DP  RH WIND       PRES   REMARKS
CHEROKEE       CLOUDY    26  18  72 N16G26    29.88R WCI  13
DENISON        LGT SNOW  23  18  80 N16G24    29.86R WCI  10
ESTHERVILLE    CLOUDY    23  16  74 N21       29.82R WCI   8
LE MARS        CLOUDY    27  18  69 N16G24    29.94R WCI  14
SHELDON        MOSUNNY   25  21  86 N24       29.88R WCI   9
SIOUX CITY     MOSUNNY   28  18  66 NW22      29.94R WCI  14
SPENCER        CLOUDY    24  17  74 N24       29.85R WCI   8
STORM LAKE     CLOUDY    23  18  80 N20G26    29.85R WCI   8
$$

ABBREVIATIONS USED IN REMARKS
   TC - TEMPERATURE IN CELSIUS
  WCI - WIND CHILL INDEX
   HX - HEAT INDEX
  VSB - VISIBILITY





USA.gov is the U.S. government's official web portal to all federal, state and local government web resources and services.